Track COSMOS 977 now! 10-day predictions COSMOS 977 is classified as:
1 10584U 78005B 22183.41193729 -.00000011 00000-0 29983-4 0 9998 2 10584 74.0303 129.6868 0040662 149.1025 297.1720 12.57953307 29648